QPF
0.01 0.01 0.01 0.00 0.00 0.00 0.00 0.00 0.00 0.00 0.00 0.00 0.00 0.00 0.01 0.01 0.00 0.00 0.01 0.00 0.00 0.00 0.00 0.00 0.00 0.00 0.00 0.00 0.00 0.00 0.00 0.00 0.00 0.00 0.00 0.01 0.03 0.04
0.01 0.01 0.01 0.00 0.00 0.00 0.00 0.00 0.00 0.00 0.00 0.00 0.00 0.00 0.00 0.00 0.00 0.00 0.01 0.01 0.00 0.00 0.00 0.00 0.00 0.00 0.00 0.00 0.00 0.00 0.00 0.00 0.00 0.00 0.00 0.00 0.00 0.01
0.02 0.02 0.02 0.01 0.01 0.00 0.01 0.00 0.00 0.00 0.00 0.00 0.00 0.00 0.00 0.00 0.00 0.00 0.00 0.00 0.00 0.00 0.00 0.00 0.00 0.00 0.00 0.00 0.00 0.00 0.00 0.00 0.00 0.00 0.00 0.00 0.00 0.00
0.02 0.01 0.01 0.01 0.01 0.01 0.01 0.00 0.00 0.00 0.00 0.00 0.00 0.00 0.00 0.00 0.00 0.00 0.00 0.00 0.00 0.00 0.00 0.00 0.00 0.00 0.00 0.00 0.00 0.00 0.00 0.00 0.00 0.00 0.00 0.00 0.00 0.00
0.01 0.01 0.01 0.01 0.01 0.01 0.01 0.01 0.01 0.01 0.01 0.00 0.00 0.00 0.00 0.00 0.00 0.00 0.00 0.00 0.00 0.00 0.00 0.00 0.00 0.00 0.00 0.00 0.00 0.00 0.00 0.00 0.00 0.00 0.00 0.00 0.00 0.00
0.02 0.01 0.01 0.01 0.02 0.02 0.02 0.02 0.02 0.01 0.01 0.01 0.01 0.01 0.01 0.01 0.01 0.00 0.00 0.00 0.00 0.00 0.00 0.00 0.00 0.00 0.00 0.00 0.00 0.00 0.00 0.00 0.00 0.00 0.00 0.00 0.00 0.00
0.02 0.02 0.02 0.02 0.02 0.02 0.02 0.02 0.02 0.02 0.02 0.02 0.01 0.01 0.01 0.01 0.01 0.01 0.01 0.01 0.01 0.00 0.00 0.00 0.00 0.00 0.00 0.00 0.00 0.00 0.00 0.00 0.00 0.00 0.00 0.00 0.00 0.00
0.03 0.03 0.03 0.02 0.02 0.02 0.01 0.01 0.01 0.02 0.02 0.02 0.01 0.01 0.01 0.02 0.02 0.02 0.01 0.01 0.01 0.01 0.01 0.01 0.00 0.00 0.00 0.00 0.00 0.00 0.00 0.00 0.00 0.00 0.00 0.00 0.00 0.00
0.05 0.05 0.04 0.04 0.03 0.03 0.02 0.02 0.02 0.01 0.01 0.01 0.01 0.01 0.02 0.02 0.03 0.02 0.02 0.02 0.01 0.01 0.02 0.01 0.01 0.01 0.00 0.00 0.00 0.00 0.00 0.00 0.00 0.00 0.00 0.00 0.00 0.00
0.08 0.07 0.08 0.08 0.07 0.06 0.05 0.04 0.03 0.02 0.02 0.02 0.01 0.02 0.02 0.03 0.03 0.03 0.02 0.02 0.01 0.01 0.02 0.01 0.01 0.00 0.00 0.00 0.00 0.00 0.00 0.00 0.00 0.00 0.00 0.00 0.00 0.00
0.09 0.08 0.07 0.07 0.07 0.07 0.06 0.05 0.06 0.05 0.04 0.03 0.02 0.02 0.02 0.02 0.02 0.02 0.02 0.03 0.02 0.02 0.02 0.02 0.01 0.01 0.01 0.00 0.00 0.00 0.00 0.00 0.00 0.00 0.00 0.00 0.00 0.00
0.04 0.04 0.04 0.05 0.06 0.06 0.06 0.06 0.06 0.06 0.06 0.06 0.05 0.03 0.02 0.02 0.02 0.02 0.03 0.04 0.04 0.03 0.03 0.03 0.03 0.03 0.02 0.01 0.00 0.00 0.00 0.00 0.00 0.00 0.00 0.00 0.00 0.00
0.05 0.05 0.05 0.05 0.05 0.06 0.07 0.06 0.07 0.07 0.06 0.05 0.05 0.04 0.04 0.04 0.05 0.05 0.06 0.07 0.07 0.05 0.04 0.04 0.04 0.03 0.03 0.01 0.01 0.00 0.01 0.01 0.01 0.01 0.00 0.00 0.00 0.00
0.04 0.04 0.04 0.04 0.03 0.03 0.03 0.03 0.04 0.04 0.03 0.03 0.04 0.04 0.04 0.04 0.05 0.05 0.05 0.06 0.06 0.05 0.05 0.06 0.06 0.04 0.04 0.03 0.01 0.01 0.01 0.01 0.01 0.01 0.01 0.01 0.00 0.00
0.03 0.04 0.03 0.03 0.03 0.02 0.03 0.04 0.05 0.05 0.05 0.04 0.04 0.04 0.03 0.03 0.02 0.02 0.02 0.02 0.02 0.02 0.02 0.03 0.04 0.04 0.04 0.03 0.02 0.01 0.01 0.01 0.01 0.02 0.02 0.02 0.02 0.02
0.02 0.02 0.02 0.02 0.02 0.02 0.03 0.03 0.03 0.03 0.04 0.04 0.03 0.03 0.03 0.03 0.03 0.03 0.02 0.02 0.02 0.02 0.01 0.02 0.03 0.04 0.04 0.03 0.03 0.02 0.02 0.02 0.02 0.02 0.03 0.03 0.03 0.03
0.01 0.02 0.02 0.02 0.03 0.02 0.03 0.03 0.04 0.04 0.04 0.04 0.04 0.04 0.04 0.04 0.04 0.04 0.04 0.04 0.04 0.03 0.02 0.02 0.02 0.03 0.04 0.04 0.04 0.03 0.03 0.03 0.03 0.04 0.06 0.05 0.04 0.04
0.01 0.01 0.02 0.02 0.02 0.02 0.02 0.03 0.03 0.03 0.03 0.03 0.03 0.03 0.03 0.03 0.03 0.03 0.04 0.04 0.04 0.03 0.03 0.03 0.03 0.04 0.04 0.03 0.03 0.04 0.04 0.04 0.05 0.08 0.10 0.09 0.06 0.06
0.02 0.03 0.05 0.06 0.06 0.05 0.04 0.03 0.03 0.03 0.03 0.03 0.04 0.04 0.05 0.05 0.05 0.05 0.05 0.05 0.05 0.04 0.03 0.03 0.05 0.06 0.06 0.03 0.02 0.03 0.05 0.06 0.08 0.09 0.10 0.10 0.07 0.06
0.03 0.03 0.04 0.04 0.04 0.04 0.03 0.02 0.02 0.02 0.03 0.03 0.04 0.04 0.03 0.03 0.03 0.03 0.04 0.04 0.05 0.05 0.05 0.04 0.05 0.07 0.09 0.08 0.06 0.04 0.04 0.05 0.07 0.08 0.09 0.10 0.09 0.06
0.02 0.02 0.02 0.03 0.03 0.03 0.03 0.03 0.03 0.03 0.03 0.03 0.03 0.03 0.03 0.02 0.02 0.03 0.03 0.03 0.03 0.04 0.04 0.04 0.05 0.06 0.08 0.10 0.08 0.04 0.04 0.05 0.06 0.08 0.10 0.11 0.09 0.08
0.02 0.02 0.02 0.02 0.02 0.02 0.02 0.02 0.01 0.02 0.02 0.02 0.02 0.02 0.03 0.03 0.03 0.03 0.03 0.03 0.04 0.04 0.04 0.04 0.05 0.06 0.08 0.09 0.08 0.06 0.06 0.07 0.07 0.04 0.04 0.05 0.06 0.06
0.02 0.02 0.01 0.01 0.01 0.01 0.01 0.01 0.01 0.02 0.03 0.03 0.03 0.03 0.03 0.03 0.03 0.03 0.03 0.04 0.04 0.04 0.05 0.06 0.06 0.07 0.08 0.09 0.08 0.07 0.07 0.07 0.09 0.09 0.07 0.05 0.02 0.01
MSLP
1018.47 1018.73 1019.02 1019.32 1019.60 1019.84 1020.02 1020.13 1020.17 1020.14 1020.06 1019.95 1019.85 1019.77 1019.73 1019.74 1019.78 1019.86 1019.95 1020.05 1020.12 1020.15 1020.15 1020.10 1020.01 1019.89 1019.74 1019.58 1019.41 1019.24 1019.07 1018.91 1018.74 1018.59 1018.44 1018.31 1018.21 1018.15
1018.26 1018.52 1018.80 1019.08 1019.35 1019.59 1019.77 1019.88 1019.91 1019.89 1019.80 1019.69 1019.58 1019.47 1019.40 1019.36 1019.36 1019.38 1019.43 1019.47 1019.50 1019.51 1019.50 1019.45 1019.38 1019.29 1019.20 1019.10 1018.99 1018.89 1018.78 1018.66 1018.52 1018.37 1018.21 1018.05 1017.90 1017.78
1017.98 1018.22 1018.48 1018.75 1019.01 1019.23 1019.40 1019.51 1019.55 1019.53 1019.46 1019.35 1019.23 1019.11 1019.01 1018.94 1018.89 1018.87 1018.85 1018.84 1018.82 1018.78 1018.72 1018.66 1018.59 1018.53 1018.47 1018.43 1018.40 1018.38 1018.34 1018.29 1018.21 1018.10 1017.96 1017.80 1017.64 1017.48
1017.61 1017.84 1018.09 1018.34 1018.58 1018.79 1018.95 1019.06 1019.10 1019.09 1019.03 1018.94 1018.82 1018.71 1018.60 1018.51 1018.43 1018.36 1018.29 1018.22 1018.12 1018.02 1017.91 1017.81 1017.71 1017.65 1017.61 1017.61 1017.64 1017.69 1017.74 1017.77 1017.77 1017.72 1017.63 1017.50 1017.34 1017.18
1017.17 1017.39 1017.63 1017.86 1018.08 1018.27 1018.43 1018.53 1018.58 1018.58 1018.54 1018.46 1018.37 1018.27 1018.18 1018.08 1017.99 1017.89 1017.77 1017.63 1017.48 1017.30 1017.12 1016.95 1016.81 1016.71 1016.66 1016.67 1016.73 1016.83 1016.94 1017.05 1017.12 1017.16 1017.13 1017.06 1016.94 1016.80
1016.69 1016.91 1017.13 1017.35 1017.55 1017.73 1017.87 1017.97 1018.02 1018.03 1018.00 1017.95 1017.88 1017.80 1017.72 1017.64 1017.54 1017.42 1017.28 1017.10 1016.88 1016.63 1016.38 1016.13 1015.91 1015.74 1015.65 1015.63 1015.69 1015.80 1015.96 1016.12 1016.27 1016.38 1016.44 1016.43 1016.38 1016.29
1016.21 1016.42 1016.64 1016.85 1017.04 1017.20 1017.33 1017.42 1017.46 1017.47 1017.44 1017.40 1017.34 1017.29 1017.22 1017.15 1017.07 1016.95 1016.79 1016.58 1016.32 1016.01 1015.68 1015.35 1015.05 1014.80 1014.63 1014.55 1014.57 1014.66 1014.83 1015.02 1015.23 1015.41 1015.54 1015.62 1015.64 1015.61
1015.77 1015.99 1016.21 1016.41 1016.60 1016.75 1016.86 1016.92 1016.94 1016.93 1016.89 1016.84 1016.78 1016.73 1016.67 1016.61 1016.53 1016.42 1016.26 1016.04 1015.75 1015.41 1015.02 1014.62 1014.24 1013.90 1013.64 1013.48 1013.43 1013.48 1013.62 1013.82 1014.05 1014.27 1014.48 1014.63 1014.73 1014.77
1015.42 1015.65 1015.87 1016.08 1016.26 1016.39 1016.48 1016.52 1016.51 1016.46 1016.39 1016.30 1016.21 1016.14 1016.07 1016.00 1015.92 1015.81 1015.66 1015.44 1015.15 1014.78 1014.37 1013.92 1013.47 1013.06 1012.72 1012.47 1012.34 1012.32 1012.41 1012.58 1012.81 1013.07 1013.31 1013.53 1013.69 1013.80
1015.18 1015.42 1015.66 1015.87 1016.05 1016.17 1016.24 1016.24 1016.19 1016.09 1015.95 1015.81 1015.67 1015.54 1015.43 1015.33 1015.23 1015.12 1014.97 1014.76 1014.47 1014.12 1013.70 1013.24 1012.76 1012.30 1011.89 1011.57 1011.36 1011.27 1011.30 1011.42 1011.62 1011.87 1012.13 1012.38 1012.58 1012.74
1015.07 1015.33 1015.57 1015.79 1015.97 1016.08 1016.12 1016.08 1015.98 1015.81 1015.61 1015.39 1015.16 1014.96 1014.78 1014.63 1014.49 1014.36 1014.20 1014.00 1013.73 1013.41 1013.01 1012.57 1012.09 1011.62 1011.18 1010.82 1010.55 1010.39 1010.34 1010.40 1010.55 1010.76 1011.00 1011.24 1011.46 1011.63
1015.08 1015.35 1015.60 1015.81 1015.97 1016.07 1016.08 1016.00 1015.84 1015.61 1015.33 1015.02 1014.71 1014.42 1014.15 1013.93 1013.73 1013.55 1013.37 1013.18 1012.94 1012.65 1012.30 1011.90 1011.46 1011.01 1010.58 1010.20 1009.90 1009.68 1009.57 1009.56 1009.64 1009.78 1009.97 1010.17 1010.36 1010.52
1015.20 1015.45 1015.68 1015.87 1016.01 1016.08 1016.05 1015.94 1015.73 1015.45 1015.10 1014.71 1014.31 1013.92 1013.56 1013.25 1012.98 1012.74 1012.53 1012.33 1012.10 1011.85 1011.56 1011.22 1010.85 1010.46 1010.07 1009.70 1009.39 1009.14 1008.97 1008.89 1008.89 1008.94 1009.05 1009.18 1009.30 1009.42
1015.35 1015.56 1015.75 1015.90 1016.00 1016.03 1015.97 1015.82 1015.58 1015.25 1014.85 1014.40 1013.93 1013.46 1013.02 1012.62 1012.27 1011.97 1011.71 1011.48 1011.27 1011.05 1010.81 1010.54 1010.25 1009.93 1009.60 1009.28 1008.98 1008.71 1008.51 1008.36 1008.27 1008.23 1008.23 1008.26 1008.31 1008.35
1015.48 1015.62 1015.74 1015.82 1015.87 1015.85 1015.76 1015.58 1015.32 1014.97 1014.55 1014.08 1013.56 1013.04 1012.53 1012.05 1011.63 1011.26 1010.94 1010.68 1010.45 1010.25 1010.05 1009.85 1009.63 1009.39 1009.13 1008.86 1008.59 1008.34 1008.10 1007.90 1007.73 1007.59 1007.49 1007.42 1007.37 1007.33
1015.49 1015.54 1015.57 1015.57 1015.55 1015.49 1015.37 1015.18 1014.93 1014.59 1014.18 1013.71 1013.20 1012.65 1012.10 1011.57 1011.08 1010.64 1010.26 1009.95 1009.69 1009.48 1009.30 1009.13 1008.97 1008.80 1008.61 1008.41 1008.18 1007.94 1007.69 1007.45 1007.21 1007.00 1006.80 1006.64 1006.49 1006.38
1015.32 1015.27 1015.20 1015.13 1015.05 1014.94 1014.81 1014.64 1014.41 1014.12 1013.76 1013.33 1012.84 1012.31 1011.75 1011.19 1010.65 1010.14 1009.69 1009.32 1009.00 1008.76 1008.57 1008.42 1008.29 1008.16 1008.03 1007.87 1007.68 1007.47 1007.22 1006.96 1006.68 1006.41 1006.14 1005.90 1005.69 1005.52
1014.94 1014.80 1014.65 1014.52 1014.39 1014.27 1014.14 1014.00 1013.83 1013.61 1013.32 1012.97 1012.55 1012.05 1011.51 1010.94 1010.36 1009.79 1009.27 1008.82 1008.43 1008.12 1007.89 1007.71 1007.58 1007.47 1007.36 1007.24 1007.09 1006.90 1006.67 1006.40 1006.11 1005.80 1005.50 1005.22 1004.96 1004.76
1014.37 1014.17 1013.98 1013.81 1013.66 1013.55 1013.46 1013.38 1013.28 1013.15 1012.96 1012.70 1012.35 1011.91 1011.40 1010.83 1010.22 1009.60 1009.00 1008.46 1007.98 1007.58 1007.27 1007.04 1006.87 1006.74 1006.64 1006.53 1006.40 1006.23 1006.02 1005.77 1005.49 1005.18 1004.86 1004.57 1004.30 1004.09
1013.68 1013.47 1013.28 1013.11 1012.99 1012.92 1012.89 1012.88 1012.87 1012.83 1012.74 1012.57 1012.30 1011.92 1011.44 1010.86 1010.23 1009.55 1008.88 1008.23 1007.65 1007.15 1006.75 1006.43 1006.19 1006.02 1005.89 1005.77 1005.65 1005.50 1005.31 1005.08 1004.82 1004.53 1004.23 1003.94 1003.69 1003.49
1013.01 1012.83 1012.67 1012.55 1012.49 1012.48 1012.52 1012.59 1012.66 1012.71 1012.70 1012.60 1012.39 1012.06 1011.59 1011.01 1010.34 1009.61 1008.86 1008.12 1007.43 1006.82 1006.30 1005.88 1005.56 1005.32 1005.14 1005.00 1004.86 1004.72 1004.55 1004.35 1004.11 1003.85 1003.58 1003.32 1003.09 1002.91
1012.46 1012.35 1012.26 1012.21 1012.22 1012.29 1012.40 1012.53 1012.67 1012.78 1012.82 1012.77 1012.59 1012.27 1011.81 1011.21 1010.50 1009.72 1008.89 1008.06 1007.27 1006.55 1005.93 1005.41 1005.00 1004.68 1004.44 1004.25 1004.09 1003.94 1003.78 1003.59 1003.39 1003.16 1002.92 1002.69 1002.49 1002.32
1012.16 1012.12 1012.12 1012.15 1012.23 1012.36 1012.52 1012.69 1012.86 1012.99 1013.04 1012.99 1012.80 1012.47 1011.98 1011.36 1010.61 1009.77 1008.88 1007.98 1007.11 1006.31 1005.60 1004.99 1004.50 1004.10 1003.80 1003.56 1003.37 1003.20 1003.03 1002.86 1002.66 1002.46 1002.24 1002.03 1001.84 1001.69
Thickness
5728 5726 5726 5729 5728 5728 5727 5726 5721 5717 5719 5721 5721 5721 5718 5716 5713 5711 5711 5707 5704 5702 5700 5699 5697 5696 5695 5694 5693 5692 5691 5690 5690 5689 5688 5687 5687 5686
5724 5723 5722 5725 5725 5724 5723 5723 5721 5718 5716 5721 5718 5720 5714 5714 5710 5708 5707 5705 5703 5701 5699 5697 5695 5694 5693 5692 5691 5690 5689 5689 5688 5687 5686 5685 5685 5684
5722 5720 5719 5719 5720 5721 5719 5718 5717 5715 5711 5714 5716 5714 5708 5706 5707 5705 5704 5703 5704 5701 5698 5695 5693 5692 5691 5690 5689 5687 5687 5686 5685 5685 5684 5683 5682 5682
5719 5718 5716 5716 5714 5714 5714 5713 5712 5710 5707 5705 5708 5708 5704 5703 5701 5699 5701 5703 5701 5700 5696 5693 5691 5689 5688 5687 5686 5685 5684 5683 5682 5681 5681 5680 5679 5678
5717 5715 5714 5712 5709 5710 5707 5708 5708 5707 5703 5702 5702 5703 5702 5700 5697 5696 5697 5695 5696 5696 5693 5691 5689 5687 5685 5684 5683 5682 5681 5680 5679 5678 5677 5676 5676 5675
5714 5712 5711 5709 5706 5704 5702 5701 5700 5699 5698 5696 5697 5697 5696 5695 5692 5690 5691 5692 5691 5692 5691 5689 5686 5684 5683 5682 5680 5679 5677 5676 5675 5674 5673 5672 5672 5671
5710 5708 5707 5705 5702 5699 5699 5697 5695 5692 5693 5692 5691 5690 5690 5687 5685 5685 5684 5684 5685 5685 5685 5685 5684 5683 5683 5680 5678 5676 5674 5672 5671 5670 5669 5668 5667 5666
5704 5703 5702 5698 5694 5690 5689 5687 5686 5685 5685 5684 5684 5682 5680 5680 5678 5676 5675 5674 5674 5680 5676 5676 5677 5678 5678 5677 5677 5674 5670 5668 5666 5665 5664 5663 5662 5661
5699 5697 5696 5696 5690 5688 5683 5678 5677 5674 5673 5673 5674 5673 5672 5671 5667 5667 5664 5663 5664 5668 5665 5666 5668 5669 5670 5671 5670 5667 5664 5661 5660 5658 5657 5657 5656 5655
5693 5690 5687 5686 5684 5680 5679 5676 5674 5672 5668 5664 5664 5664 5662 5660 5657 5655 5654 5654 5657 5659 5657 5655 5660 5661 5663 5663 5662 5659 5656 5654 5653 5651 5650 5649 5649 5648
5684 5682 5679 5676 5672 5668 5667 5667 5666 5665 5662 5658 5655 5653 5650 5647 5644 5643 5644 5644 5646 5650 5651 5647 5649 5650 5652 5653 5653 5651 5649 5647 5645 5644 5643 5641 5641 5639
5676 5673 5668 5665 5661 5658 5656 5655 5654 5654 5652 5650 5645 5643 5642 5640 5636 5632 5633 5632 5634 5636 5639 5636 5636 5635 5637 5642 5643 5643 5641 5639 5637 5636 5635 5634 5632 5630
5667 5664 5661 5654 5650 5647 5645 5644 5643 5640 5639 5637 5636 5635 5634 5632 5630 5627 5624 5621 5621 5623 5625 5622 5622 5621 5621 5626 5629 5630 5629 5629 5629 5629 5628 5627 5625 5621
5656 5655 5651 5644 5639 5636 5634 5632 5628 5625 5627 5627 5626 5625 5623 5621 5619 5616 5613 5611 5609 5608 5608 5605 5605 5604 5604 5608 5612 5616 5616 5616 5617 5618 5619 5620 5617 5615
5644 5639 5635 5631 5627 5626 5622 5619 5616 5616 5616 5615 5614 5613 5612 5610 5606 5603 5601 5599 5598 5597 5596 5593 5591 5591 5591 5592 5596 5599 5601 5604 5605 5606 5607 5608 5609 5608
5631 5627 5622 5619 5616 5615 5612 5610 5608 5607 5605 5602 5601 5600 5598 5595 5593 5591 5589 5588 5587 5588 5587 5584 5581 5579 5579 5581 5582 5585 5587 5590 5594 5595 5595 5597 5598 5599
5617 5616 5615 5613 5610 5609 5605 5602 5599 5596 5592 5590 5588 5586 5584 5582 5579 5577 5574 5572 5572 5573 5574 5573 5572 5570 5570 5568 5570 5573 5576 5578 5581 5583 5581 5584 5588 5589
5602 5605 5603 5601 5598 5595 5592 5589 5587 5584 5581 5578 5575 5573 5570 5568 5566 5563 5561 5559 5559 5560 5560 5560 5559 5559 5559 5562 5560 5562 5564 5566 5569 5571 5571 5572 5577 5581
5589 5591 5588 5585 5583 5580 5578 5575 5573 5570 5566 5563 5561 5559 5556 5554 5552 5551 5549 5548 5547 5547 5546 5546 5545 5545 5545 5550 5555 5551 5551 5554 5556 5559 5561 5563 5567 5572
5578 5576 5573 5570 5568 5565 5563 5561 5558 5556 5553 5550 5548 5546 5544 5542 5541 5539 5538 5536 5535 5534 5534 5534 5533 5533 5533 5535 5540 5543 5540 5541 5544 5547 5551 5554 5558 5561
5564 5561 5558 5555 5552 5549 5547 5545 5543 5541 5539 5537 5535 5533 5532 5531 5530 5528 5526 5524 5521 5523 5524 5525 5525 5522 5522 5524 5529 5535 5537 5536 5536 5537 5540 5544 5549 5553
5549 5546 5543 5540 5537 5535 5533 5531 5530 5529 5527 5525 5523 5521 5519 5518 5517 5516 5516 5515 5514 5514 5516 5517 5517 5517 5517 5518 5521 5526 5530 5532 5534 5533 5534 5536 5540 5547
5535 5532 5529 5527 5525 5522 5521 5519 5516 5515 5513 5511 5510 5509 5507 5507 5506 5506 5505 5505 5506 5507 5508 5509 5511 5511 5512 5514 5516 5520 5525 5528 5531 5534 5537 5538 5538 5539